SCATSAT 1

Last updated on Sat Nov 15 2025 00:02:32 GMT+0000 (Coordinated Universal Time)

1 41790U 16059H 25318.44221679 .00003757 00000+0 50588-3 0 9996 2 41790 98.1506 14.7557 0054608 218.6976 141.0317 14.78794384 69842
UTC large
Height (km)
Speed (km/s)
/
Latitude / Longitude
Inclination (degrees)
Orbital Period (minutes)
Azimuth
Elevation
Range (km)
Doppler Factor

Next 0 passes for location: London (51.5072 / 0.1276)

Sorry there are no passes over London.